Temp
-5 -5 -5 -5 -5 -5 -5 -5 -6 -5 -6 -6 -7 -6 -5 -5 -5 -5 -5 -5 -4 -5 -5 -5 -5 -6 -6 -6 -6 -6 -6 -6 -5 -6 -6 -6 -6 -6 -6 -6 -6 -6 -6 -6 -7 -7 -7 -7 -7
-7 -6 -6 -5 -5 -5 -6 -4 -4 -6 -6 -6 -6 -6 -6 -6 -6 -5 -5 -5 -5 -5 -5 -5 -5 -6 -6 -6 -6 -6 -6 -5 -6 -6 -6 -6 -6 -6 -6 -6 -6 -6 -7 -7 -7 -7 -7 -7 -7
-8 -7 -6 -4 -6 -6 -6 -5 -5 -5 -5 -5 -5 -6 -6 -6 -6 -5 -6 -5 -5 -5 -5 -5 -5 -6 -6 -6 -6 -6 -5 -5 -5 -5 -5 -5 -6 -6 -6 -6 -6 -6 -6 -7 -7 -7 -7 -7 -7
-7 -6 -6 -7 -6 -6 -6 -5 -5 -4 -5 -5 -6 -5 -6 -6 -6 -6 -6 -6 -5 -5 -5 -5 -5 -6 -6 -6 -5 -5 -5 -5 -5 -5 -5 -5 -5 -6 -6 -6 -6 -6 -6 -6 -7 -7 -7 -7 -7
-6 -6 -7 -6 -6 -6 -6 -5 -4 -4 -5 -5 -5 -5 -6 -6 -6 -6 -6 -5 -6 -6 -6 -6 -6 -6 -6 -6 -6 -5 -5 -5 -6 -5 -5 -5 -5 -5 -6 -6 -6 -6 -6 -6 -6 -7 -7 -7 -7
-6 -6 -7 -6 -6 -7 -6 -5 -5 -5 -6 -5 -5 -6 -6 -6 -6 -6 -6 -6 -6 -6 -6 -6 -6 -6 -6 -6 -6 -6 -5 -5 -5 -5 -5 -5 -6 -6 -6 -6 -6 -6 -6 -6 -6 -6 -6 -7 -7
-7 -7 -7 -7 -6 -7 -5 -4 -5 -5 -5 -5 -4 -5 -6 -6 -7 -6 -6 -6 -6 -6 -6 -6 -6 -6 -6 -6 -6 -6 -6 -5 -5 -5 -5 -5 -6 -6 -5 -5 -5 -5 -6 -6 -6 -6 -6 -6 -6
-7 -7 -7 -6 -7 -6 -6 -6 -6 -6 -6 -6 -5 -5 -6 -6 -7 -6 -6 -6 -6 -6 -6 -7 -7 -6 -6 -6 -6 -6 -6 -6 -5 -6 -5 -6 -6 -5 -6 -5 -5 -5 -6 -6 -6 -6 -6 -6 -6
-6 -8 -8 -8 -8 -6 -6 -6 -7 -7 -6 -6 -5 -6 -6 -6 -7 -7 -6 -6 -7 -6 -6 -6 -6 -7 -7 -7 -7 -6 -6 -6 -6 -6 -6 -6 -5 -5 -5 -6 -5 -5 -6 -6 -6 -6 -6 -6 -6
-8 -8 -7 -8 -7 -6 -7 -7 -7 -7 -7 -6 -6 -6 -5 -6 -6 -7 -7 -6 -6 -6 -6 -6 -6 -6 -7 -7 -7 -7 -7 -6 -6 -6 -6 -5 -5 -5 -5 -5 -5 -5 -5 -6 -6 -6 -6 -6 -6
-8 -8 -8 -8 -7 -6 -7 -8 -7 -6 -6 -6 -6 -6 -6 -6 -6 -6 -7 -6 -6 -6 -6 -6 -6 -6 -7 -7 -7 -7 -7 -7 -6 -6 -6 -5 -5 -5 -5 -5 -5 -5 -5 -5 -5 -6 -6 -6 -6
-8 -8 -8 -8 -8 -7 -7 -8 -7 -7 -5 -6 -6 -6 -6 -5 -6 -6 -6 -6 -6 -6 -7 -6 -6 -6 -6 -7 -7 -7 -7 -7 -6 -6 -6 -6 -6 -6 -6 -6 -5 -5 -5 -5 -5 -6 -6 -6 -6
-8 -8 -8 -8 -8 -7 -8 -8 -6 -6 -7 -6 -6 -7 -6 -6 -6 -6 -6 -6 -7 -7 -7 -6 -6 -7 -6 -6 -6 -7 -7 -6 -6 -6 -6 -6 -7 -6 -5 -5 -5 -5 -5 -5 -6 -6 -6 -6 -6
-8 -8 -8 -8 -8 -8 -8 -8 -7 -7 -7 -7 -7 -7 -6 -6 -6 -6 -7 -7 -7 -7 -8 -8 -7 -7 -7 -7 -7 -6 -6 -6 -6 -6 -6 -6 -6 -6 -5 -6 -6 -5 -5 -5 -5 -5 -5 -5 -6
-6 -7 -8 -8 -8 -8 -8 -8 -7 -7 -7 -7 -6 -6 -6 -6 -6 -6 -6 -7 -6 -6 -7 -7 -7 -7 -7 -7 -6 -7 -7 -7 -6 -6 -6 -6 -6 -6 -6 -5 -5 -5 -5 -5 -5 -5 -6 -6 -6
-6 -7 -8 -8 -8 -8 -8 -7 -7 -7 -7 -6 -6 -6 -6 -7 -6 -6 -6 -7 -7 -6 -6 -7 -7 -7 -6 -6 -6 -5 -6 -7 -7 -6 -6 -6 -6 -6 -6 -5 -5 -6 -6 -6 -5 -6 -6 -6 -6
-7 -8 -8 -8 -8 -7 -8 -8 -7 -7 -7 -6 -6 -7 -7 -7 -6 -7 -7 -7 -7 -7 -7 -7 -6 -6 -7 -6 -6 -6 -6 -6 -6 -6 -6 -6 -6 -5 -6 -5 -5 -5 -5 -5 -5 -5 -6 -6 -5
-6 -6 -7 -7 -8 -7 -8 -8 -7 -6 -7 -7 -7 -7 -7 -7 -7 -6 -7 -7 -7 -7 -7 -8 -7 -7 -7 -7 -7 -7 -6 -6 -6 -6 -6 -7 -6 -5 -5 -5 -5 -6 -6 -5 -5 -5 -5 -5 -5
-6 -6 -7 -7 -8 -8 -8 -8 -7 -6 -6 -7 -7 -7 -7 -6 -7 -6 -6 -6 -7 -7 -7 -7 -7 -7 -7 -7 -7 -7 -7 -6 -7 -7 -6 -7 -7 -6 -6 -4 -4 -5 -5 -5 -5 -5 -6 -5 -5
-6 -7 -8 -8 -8 -7 -7 -7 -7 -7 -7 -7 -8 -7 -7 -7 -7 -7 -6 -6 -7 -7 -7 -7 -7 -7 -7 -7 -7 -7 -7 -7 -7 -7 -7 -7 -6 -6 -5 -4 -4 -5 -5 -5 -5 -6 -6 -6 -5
-6 -7 -7 -7 -8 -8 -8 -7 -6 -7 -7 -7 -8 -6 -7 -7 -6 -6 -6 -5 -6 -6 -6 -6 -7 -7 -7 -7 -7 -7 -7 -7 -7 -6 -7 -7 -7 -7 -6 -6 -6 -6 -6 -6 -5 -5 -6 -5 -5
-6 -7 -7 -7 -7 -8 -8 -7 -7 -7 -7 -7 -7 -6 -6 -6 -6 -6 -6 -5 -6 -6 -6 -6 -6 -6 -6 -6 -6 -6 -7 -7 -7 -6 -7 -7 -7 -7 -7 -7 -6 -6 -6 -6 -6 -5 -5 -5 -5
-6 -8 -8 -8 -8 -8 -7 -7 -7 -7 -7 -7 -7 -6 -6 -6 -5 -6 -6 -5 -6 -6 -6 -6 -6 -6 -6 -6 -6 -6 -6 -6 -6 -6 -7 -7 -6 -7 -7 -7 -7 -6 -6 -6 -5 -5 -5 -5 -5
-8 -8 -7 -8 -8 -8 -8 -7 -7 -7 -7 -7 -7 -6 -6 -6 -6 -6 -6 -6 -6 -6 -6 -6 -6 -6 -6 -6 -6 -6 -6 -6 -6 -6 -6 -6 -6 -6 -6 -6 -6 -6 -6 -6 -5 -5 -5 -5 -5
-8 -9 -8 -8 -7 -7 -8 -8 -7 -7 -7 -8 -7 -6 -6 -6 -6 -6 -6 -6 -6 -7 -6 -6 -6 -6 -6 -6 -7 -6 -6 -6 -6 -6 -6 -6 -6 -6 -6 -6 -6 -6 -6 -6 -5 -6 -5 -5 -5
-8 -9 -8 -8 -8 -8 -7 -8 -7 -7 -6 -7 -7 -6 -7 -6 -6 -6 -6 -6 -7 -7 -7 -7 -7 -6 -6 -6 -7 -6 -6 -6 -6 -6 -6 -6 -6 -6 -6 -6 -6 -6 -6 -6 -6 -6 -5 -5 -5
-8 -8 -8 -8 -8 -8 -7 -7 -7 -7 -7 -7 -8 -7 -7 -7 -7 -7 -7 -7 -8 -8 -8 -7 -7 -7 -7 -7 -7 -7 -6 -6 -6 -6 -6 -6 -6 -6 -6 -5 -6 -6 -6 -6 -5 -5 -5 -5 -5
-8 -8 -8 -8 -8 -7 -7 -6 -6 -7 -6 -7 -7 -8 -7 -7 -8 -8 -8 -8 -8 -8 -8 -8 -8 -8 -7 -7 -7 -6 -6 -6 -6 -7 -7 -7 -7 -6 -6 -6 -6 -6 -6 -6 -5 -5 -5 -5 -5
-8 -8 -8 -8 -8 -7 -7 -7 -7 -7 -7 -8 -6 -7 -8 -8 -8 -9 -8 -8 -8 -8 -8 -8 -8 -7 -7 -7 -7 -7 -6 -6 -7 -7 -8 -8 -7 -7 -6 -6 -6 -6 -6 -6 -5 -5 -5 -5 -5
-8 -8 -8 -7 -7 -7 -7 -7 -8 -7 -7 -7 -6 -7 -8 -8 -8 -9 -8 -8 -9 -8 -8 -8 -8 -7 -8 -8 -7 -7 -7 -7 -8 -8 -8 -8 -7 -7 -6 -6 -6 -6 -6 -6 -6 -6 -6 -6 -6
Height
5921 5921 5920 5921 5922 5915 5912 5910 5909 5911 5912 5911 5907 5905 5908 5907 5907 5908 5906 5907 5906 5904 5904 5904 5904 5903 5903 5902 5902 5903 5904 5904 5903 5904 5903 5901 5900 5902 5903 5903 5904 5904 5903 5902 5902 5901 5900 5900 5900
5923 5923 5921 5921 5920 5916 5916 5914 5913 5909 5909 5912 5910 5908 5909 5907 5908 5907 5907 5908 5908 5906 5906 5906 5906 5905 5905 5905 5904 5905 5905 5904 5905 5904 5903 5903 5904 5904 5904 5904 5905 5905 5904 5903 5902 5902 5902 5902 5901
5925 5924 5923 5920 5919 5918 5915 5912 5914 5911 5914 5910 5912 5911 5910 5909 5909 5909 5909 5909 5910 5908 5908 5907 5907 5907 5906 5907 5907 5907 5907 5907 5907 5906 5906 5906 5907 5907 5906 5905 5905 5905 5904 5904 5904 5904 5903 5904 5904
5925 5925 5922 5921 5920 5916 5914 5913 5914 5911 5910 5913 5913 5914 5912 5910 5909 5909 5908 5910 5910 5909 5909 5909 5909 5908 5908 5909 5910 5910 5910 5910 5909 5909 5908 5908 5908 5908 5907 5906 5906 5905 5905 5905 5905 5905 5905 5904 5904
5925 5925 5921 5920 5923 5922 5920 5919 5912 5911 5910 5912 5913 5912 5912 5910 5908 5909 5910 5910 5909 5909 5909 5910 5910 5910 5910 5911 5911 5911 5911 5911 5911 5910 5910 5910 5910 5909 5908 5908 5908 5908 5907 5906 5906 5906 5906 5905 5906
5928 5927 5923 5923 5926 5926 5924 5921 5922 5916 5913 5914 5914 5911 5912 5910 5909 5908 5909 5908 5909 5909 5910 5911 5911 5911 5912 5912 5912 5912 5911 5911 5911 5911 5911 5911 5910 5909 5909 5909 5909 5908 5908 5907 5907 5907 5907 5907 5905
5930 5928 5925 5926 5928 5929 5927 5926 5922 5921 5915 5915 5914 5910 5910 5910 5908 5908 5907 5908 5909 5909 5910 5911 5912 5912 5912 5912 5912 5912 5911 5911 5911 5911 5910 5910 5910 5910 5909 5910 5910 5910 5909 5908 5907 5907 5908 5907 5906
5928 5929 5922 5925 5929 5931 5929 5924 5921 5920 5916 5915 5912 5910 5909 5911 5908 5907 5908 5908 5908 5909 5910 5911 5912 5913 5913 5912 5912 5912 5912 5912 5911 5910 5910 5910 5910 5910 5909 5910 5911 5911 5911 5910 5908 5908 5908 5907 5906
5931 5929 5931 5929 5928 5931 5931 5925 5922 5921 5920 5917 5913 5909 5906 5911 5910 5907 5908 5908 5909 5909 5909 5910 5911 5912 5912 5912 5912 5912 5912 5912 5912 5911 5910 5910 5909 5909 5909 5909 5911 5911 5911 5910 5909 5909 5908 5907 5906
5932 5934 5934 5932 5931 5931 5929 5924 5923 5922 5921 5918 5915 5909 5906 5912 5912 5909 5907 5909 5909 5908 5908 5909 5910 5911 5912 5912 5913 5913 5912 5912 5911 5912 5911 5910 5909 5907 5908 5909 5910 5911 5911 5911 5910 5908 5907 5907 5907
5935 5934 5933 5934 5934 5933 5931 5929 5926 5923 5924 5921 5917 5913 5908 5912 5911 5909 5905 5905 5905 5905 5905 5906 5908 5910 5912 5913 5912 5912 5913 5912 5911 5911 5911 5909 5908 5904 5907 5910 5911 5911 5912 5911 5910 5908 5907 5906 5906
5932 5932 5934 5934 5935 5934 5932 5931 5929 5926 5925 5921 5917 5913 5908 5908 5911 5909 5905 5902 5901 5902 5904 5905 5907 5908 5910 5911 5911 5911 5911 5911 5911 5910 5909 5908 5907 5904 5906 5909 5911 5912 5911 5910 5909 5908 5907 5906 5905
5932 5935 5933 5935 5934 5934 5933 5930 5933 5930 5924 5921 5916 5912 5913 5911 5910 5907 5906 5903 5902 5901 5900 5904 5906 5906 5908 5910 5910 5910 5911 5910 5909 5908 5908 5907 5908 5907 5906 5906 5909 5910 5910 5909 5908 5907 5906 5905 5904
5929 5932 5934 5933 5934 5934 5933 5928 5930 5929 5925 5926 5921 5916 5917 5914 5909 5905 5904 5902 5902 5904 5902 5900 5903 5905 5906 5907 5909 5910 5909 5907 5906 5907 5907 5909 5910 5909 5908 5907 5907 5907 5907 5906 5905 5904 5905 5903 5902
5930 5930 5933 5929 5932 5933 5931 5931 5930 5932 5928 5926 5921 5920 5919 5916 5911 5904 5904 5901 5900 5902 5903 5903 5905 5906 5907 5908 5909 5909 5909 5909 5907 5909 5909 5908 5908 5908 5908 5907 5906 5904 5904 5904 5903 5902 5902 5901 5901
5928 5931 5932 5935 5932 5932 5932 5929 5930 5930 5929 5925 5921 5913 5915 5913 5910 5904 5902 5901 5898 5896 5897 5901 5903 5904 5905 5905 5907 5910 5911 5910 5908 5907 5906 5905 5904 5903 5901 5904 5905 5905 5903 5902 5901 5901 5900 5900 5899
5928 5928 5931 5933 5931 5932 5932 5925 5929 5928 5928 5924 5918 5914 5918 5915 5912 5905 5905 5901 5900 5899 5897 5899 5901 5901 5901 5903 5905 5907 5907 5908 5907 5905 5902 5904 5906 5903 5902 5902 5902 5900 5899 5900 5899 5898 5897 5898 5897
5926 5927 5931 5933 5933 5933 5932 5928 5929 5929 5927 5925 5918 5918 5921 5919 5915 5911 5909 5902 5900 5899 5899 5900 5900 5899 5900 5902 5905 5906 5904 5905 5905 5904 5899 5901 5901 5900 5899 5900 5897 5892 5892 5895 5898 5897 5894 5893 5893
5925 5925 5929 5930 5930 5932 5932 5927 5926 5927 5927 5926 5926 5923 5921 5922 5920 5918 5915 5907 5904 5904 5902 5904 5902 5901 5902 5904 5906 5905 5903 5903 5903 5901 5900 5898 5899 5896 5893 5896 5896 5893 5890 5888 5894 5893 5891 5889 5888
5923 5925 5928 5928 5930 5930 5931 5932 5928 5929 5927 5926 5925 5924 5923 5922 5922 5918 5917 5915 5910 5909 5907 5905 5903 5903 5905 5906 5907 5904 5904 5901 5901 5901 5900 5898 5895 5893 5892 5892 5891 5892 5892 5891 5891 5890 5886 5885 5884
5922 5922 5922 5928 5926 5928 5929 5930 5930 5928 5929 5928 5925 5927 5924 5922 5924 5920 5919 5917 5913 5911 5911 5909 5906 5906 5908 5909 5908 5906 5902 5900 5899 5899 5897 5897 5893 5892 5888 5887 5888 5889 5889 5888 5887 5885 5884 5881 5879
5919 5920 5918 5922 5924 5925 5925 5927 5927 5927 5928 5928 5924 5924 5922 5921 5925 5923 5921 5917 5912 5914 5914 5912 5910 5910 5911 5911 5908 5906 5904 5902 5899 5897 5897 5895 5893 5890 5887 5885 5886 5887 5886 5884 5884 5882 5880 5879 5876
5915 5917 5917 5919 5921 5924 5923 5923 5921 5923 5925 5926 5923 5924 5925 5923 5923 5922 5919 5919 5909 5914 5916 5914 5912 5910 5910 5910 5907 5906 5903 5902 5900 5898 5896 5893 5893 5891 5889 5887 5886 5885 5884 5884 5883 5880 5878 5876 5874
5912 5913 5915 5914 5918 5920 5919 5920 5922 5921 5923 5922 5922 5922 5923 5923 5923 5921 5916 5914 5907 5913 5913 5912 5911 5910 5909 5909 5907 5906 5905 5903 5901 5899 5897 5895 5892 5892 5890 5889 5887 5885 5884 5883 5881 5878 5877 5874 5871
5906 5910 5910 5913 5915 5916 5916 5916 5918 5919 5920 5916 5918 5921 5919 5922 5921 5917 5914 5912 5908 5911 5912 5911 5910 5909 5909 5908 5907 5905 5903 5902 5899 5897 5897 5895 5894 5891 5890 5889 5887 5886 5884 5882 5880 5878 5876 5873 5870
5903 5906 5907 5909 5911 5912 5912 5913 5915 5915 5918 5913 5913 5917 5917 5917 5915 5912 5911 5909 5908 5911 5909 5908 5907 5906 5906 5904 5903 5900 5899 5898 5896 5894 5893 5892 5891 5889 5888 5886 5886 5884 5883 5881 5880 5877 5875 5872 5870
5901 5901 5905 5905 5906 5906 5909 5910 5910 5905 5911 5912 5905 5908 5911 5911 5910 5909 5907 5907 5909 5907 5907 5906 5904 5903 5903 5901 5900 5898 5895 5893 5891 5890 5889 5888 5887 5886 5886 5884 5883 5881 5880 5879 5878 5875 5873 5870 5868
5895 5902 5902 5901 5900 5902 5905 5904 5904 5904 5904 5904 5906 5904 5907 5907 5906 5905 5905 5904 5904 5905 5906 5905 5903 5902 5900 5899 5898 5895 5893 5890 5887 5884 5883 5883 5883 5883 5882 5881 5879 5878 5877 5876 5874 5873 5870 5867 5865
5890 5894 5895 5897 5897 5899 5902 5903 5902 5902 5901 5896 5899 5897 5899 5902 5901 5902 5904 5905 5906 5906 5904 5903 5902 5900 5899 5898 5896 5894 5892 5889 5886 5882 5879 5879 5879 5879 5878 5878 5876 5875 5873 5871 5870 5867 5865 5863 5860
5884 5889 5891 5891 5895 5897 5899 5899 5897 5899 5897 5892 5893 5894 5897 5895 5900 5904 5903 5905 5905 5904 5902 5901 5900 5899 5896 5895 5894 5892 5889 5886 5883 5880 5878 5877 5876 5876 5876 5874 5872 5871 5868 5867 5865 5861 5859 5858 5856
Wind_Speed
18 15 13 13 10 7 7 8 4 8 9 8 6 10 8 11 6 8 8 6 7 10 11 10 10 12 11 12 13 13 11 13 12 12 11 11 11 11 9 9 8 9 8 8 8 9 9 9 10
16 13 11 13 18 8 10 14 7 14 15 9 4 7 4 8 5 8 8 5 5 9 9 9 9 11 10 12 13 12 12 13 12 13 14 12 9 7 8 6 5 6 7 6 7 8 8 8 8
18 11 8 14 22 13 15 14 14 13 6 8 4 4 4 3 3 5 8 7 4 8 9 10 8 10 10 11 12 12 13 12 12 12 12 11 10 8 7 7 6 5 5 5 4 4 5 6 6
17 11 13 19 20 14 13 7 7 11 17 14 5 1 5 3 2 3 5 5 5 7 8 9 8 9 9 9 10 10 11 12 11 11 12 11 11 9 9 8 8 6 4 4 4 2 2 3 4
15 13 13 20 28 21 20 23 23 17 16 12 11 9 3 1 3 2 3 3 4 5 6 7 7 7 8 8 9 8 7 8 10 10 10 10 10 11 11 9 9 8 6 6 6 5 4 4 3
19 13 12 17 28 28 21 26 17 17 15 15 10 9 9 3 2 4 2 3 2 2 3 4 6 6 6 7 8 8 7 7 7 7 6 8 9 8 9 10 7 6 5 6 7 8 8 6 5
11 10 12 17 21 21 16 17 18 11 18 17 14 10 10 9 2 0 1 1 1 1 2 3 5 7 5 7 6 5 6 6 5 5 5 6 7 6 6 6 6 4 4 4 5 6 8 8 7
16 16 15 17 16 16 20 14 17 19 19 18 16 12 12 11 3 4 1 0 1 2 2 3 3 5 6 4 3 4 6 6 5 5 5 5 5 5 4 3 5 6 4 2 3 3 6 8 8
9 9 10 18 21 18 15 13 18 14 20 15 13 12 12 11 4 5 3 3 4 4 4 3 2 3 5 4 4 4 5 4 5 4 4 4 4 4 4 2 2 5 6 3 4 5 5 6 7
10 5 10 17 18 18 17 25 21 20 17 13 12 14 12 11 5 3 6 3 4 4 4 3 2 2 3 3 3 2 3 3 3 7 4 6 5 7 5 5 1 3 4 4 4 5 6 7 8
5 14 16 15 16 16 22 25 22 15 12 10 11 12 12 13 8 2 4 4 3 3 3 4 2 1 2 3 3 2 1 1 3 5 6 10 8 2 9 3 3 2 3 4 5 5 6 8 9
6 9 11 15 18 20 24 23 20 14 22 13 14 16 16 12 11 10 4 4 3 2 3 4 4 4 3 3 4 5 2 3 3 2 5 9 8 9 6 7 5 6 5 6 4 4 8 8 9
7 0 5 10 16 18 25 22 21 25 29 17 11 15 12 10 11 12 11 6 2 5 6 6 5 6 6 5 4 4 6 9 5 4 3 4 3 2 4 7 6 5 7 5 8 6 8 7 8
10 7 4 4 11 13 21 23 25 25 34 15 14 9 11 11 11 14 17 13 6 6 10 8 6 7 5 4 5 7 7 5 5 6 6 3 2 2 3 1 8 10 7 5 4 6 8 10 11
7 9 9 8 7 11 20 20 24 25 28 21 10 16 16 15 14 15 14 18 10 8 10 12 9 8 8 10 10 8 7 8 8 7 8 7 6 4 5 4 3 6 7 3 7 8 10 12 13
12 9 9 4 13 13 19 20 23 26 21 20 20 21 18 19 14 18 14 10 18 2 6 13 12 11 10 11 10 11 8 7 8 8 9 6 7 7 7 8 7 7 6 6 8 8 11 12 12
15 17 15 13 11 8 12 20 20 24 23 24 19 21 17 15 15 17 14 17 13 14 9 5 5 4 8 10 7 8 8 11 9 9 13 12 10 9 12 9 11 11 9 9 11 11 12 14 14
19 12 5 8 18 12 4 18 19 20 22 24 22 19 15 16 15 15 14 16 14 15 12 8 5 6 3 7 5 5 8 9 9 8 11 14 14 16 16 13 17 17 11 7 11 13 13 14 16
17 10 1 10 13 8 7 21 18 16 21 21 19 15 12 11 12 16 15 19 16 14 15 8 10 9 8 3 2 6 7 7 7 5 11 10 14 14 17 18 18 17 10 8 13 14 16 18 18
18 14 5 15 10 4 8 14 21 15 17 24 23 16 12 7 6 10 12 15 18 15 15 13 10 9 6 5 3 5 5 6 7 2 3 4 8 10 14 18 17 19 15 12 18 18 19 20 17
19 16 11 6 3 7 16 14 12 9 17 19 21 16 11 9 1 6 7 11 15 15 14 14 13 10 7 4 2 3 4 6 6 5 7 7 7 9 5 2 8 13 12 12 13 14 16 18 19
20 12 12 4 2 1 9 13 13 11 16 15 19 18 12 4 4 3 2 5 13 11 11 11 10 9 8 7 7 7 7 6 6 7 8 8 9 8 7 2 1 4 6 8 10 12 13 12 17
21 11 25 8 7 12 15 16 18 14 19 14 14 13 9 6 1 7 6 5 9 6 6 8 8 8 8 8 8 8 7 7 7 8 8 9 10 9 7 5 3 4 6 7 9 10 12 13 13
13 12 19 10 13 21 23 19 17 19 17 17 12 6 3 7 7 5 5 10 4 3 7 7 7 7 8 9 9 9 10 9 8 9 6 6 7 8 8 6 5 4 4 4 6 8 10 13 15
19 16 18 15 22 22 20 15 20 19 11 14 11 3 6 6 9 13 14 11 4 6 7 8 10 12 12 12 13 12 12 11 9 8 7 6 6 5 6 7 7 7 7 8 9 10 11 12 13
21 21 23 15 11 19 14 18 21 25 16 15 12 4 10 8 13 17 16 15 7 9 8 10 13 15 16 16 14 13 14 14 14 12 10 8 8 6 4 4 5 6 8 9 11 11 12 12 12
29 29 18 20 21 30 20 20 26 29 30 19 15 5 8 11 10 13 9 9 5 9 13 14 15 15 15 15 11 11 13 13 14 16 15 12 11 10 9 7 7 8 10 12 12 13 13 14 15
34 29 26 24 30 27 18 24 24 14 17 24 14 4 10 9 11 11 9 9 8 9 10 11 12 13 14 14 11 10 11 12 12 17 19 16 14 12 12 12 12 13 14 14 15 16 14 14 15
8 20 31 32 34 29 17 10 12 14 7 15 14 12 18 8 17 6 8 8 8 8 7 10 13 12 12 14 13 9 8 12 16 16 13 13 11 12 14 14 15 16 14 13 14 16 17 18 19
22 11 23 34 30 26 17 11 19 8 8 20 21 18 24 33 20 8 9 9 5 7 7 8 14 13 12 13 13 13 14 14 16 14 13 8 10 13 15 15 16 16 18 17 19 21 21 19 19
Wind_Direction
54 50 37 41 50 86 103 118 81 4 49 59 356 17 51 67 83 85 73 55 52 65 67 56 63 66 68 64 74 75 79 78 84 93 89 75 74 80 85 81 82 81 77 77 82 78 76 81 77
57 49 58 51 27 41 58 29 28 19 100 24 22 17 59 65 46 89 88 63 49 69 66 63 67 72 74 68 67 77 74 66 67 70 71 63 66 83 82 80 76 65 53 55 76 76 70 71 68
63 48 47 42 40 24 17 5 53 68 20 44 75 55 104 88 78 70 97 89 89 78 67 59 68 69 70 68 61 64 67 65 63 60 66 67 60 66 83 82 76 64 47 24 42 77 70 63 61
84 50 53 42 45 42 10 5 13 39 46 51 24 35 84 107 134 68 86 108 107 85 71 56 67 73 73 78 75 66 69 59 61 59 57 57 55 53 62 57 59 54 46 8 5 5 347 3 46
33 29 43 27 27 31 14 25 26 27 28 39 67 50 56 118 104 168 214 188 123 96 79 69 72 77 76 92 93 87 75 59 56 60 55 49 45 42 39 50 51 47 34 20 360 349 3 353 6
52 47 41 28 16 23 36 22 28 16 22 8 14 64 72 96 165 183 165 226 198 134 104 94 97 95 82 100 95 91 78 63 54 50 49 38 31 33 36 27 37 43 39 18 358 357 354 356 344
57 40 21 3 26 31 24 25 17 31 33 5 352 20 52 56 63 64 166 119 228 235 173 155 119 107 102 100 104 71 55 53 38 34 13 16 19 15 12 12 12 24 33 33 7 353 347 345 345
78 56 343 354 10 28 34 30 22 22 19 355 348 8 37 45 3 337 283 255 194 212 223 193 137 128 126 125 113 67 53 54 39 26 12 2 346 348 337 25 355 332 350 9 9 356 351 344 341
57 45 334 342 351 16 44 28 9 6 10 1 1 2 20 48 50 305 272 233 228 213 197 189 181 173 149 147 109 89 60 53 47 27 34 13 328 310 295 321 320 302 307 311 305 311 315 321 317
45 9 357 28 353 18 30 29 12 15 359 3 360 12 359 56 72 261 277 229 238 242 229 203 223 223 184 170 163 119 70 41 17 19 360 331 297 272 234 281 112 280 282 289 297 293 297 303 308
6 3 14 358 18 29 42 23 355 350 25 21 24 21 15 52 51 38 269 277 220 240 250 229 217 243 219 199 206 214 328 359 349 345 360 355 357 237 193 280 300 261 260 268 281 292 292 291 298
118 320 8 354 359 23 26 21 3 28 15 6 34 28 30 28 39 38 13 291 282 248 240 246 215 206 224 211 222 228 241 268 251 304 357 17 17 68 184 268 282 283 276 267 276 286 280 291 295
151 243 319 344 338 6 3 356 23 3 353 327 45 33 24 28 54 43 33 39 223 248 247 204 207 237 214 210 224 232 228 228 233 268 299 44 14 75 65 238 255 282 302 287 275 290 291 296 293
175 172 252 299 319 346 338 351 7 359 357 359 23 64 28 42 48 49 46 42 57 176 213 231 210 221 238 238 245 251 250 264 264 265 269 294 267 354 292 348 262 255 252 284 320 332 319 316 308
191 145 203 268 308 311 325 348 359 7 10 18 9 57 32 29 37 46 47 50 62 50 183 198 197 193 216 227 215 230 239 246 264 287 301 296 298 277 271 253 264 213 239 261 298 304 323 331 314
149 151 127 190 261 272 301 348 350 352 14 18 24 52 29 27 27 41 35 27 47 105 236 195 188 197 214 223 220 222 217 244 269 278 269 273 268 259 251 250 251 235 249 278 281 293 306 317 328
166 161 166 158 244 322 296 331 341 357 8 14 14 25 25 28 26 36 34 46 46 44 66 159 185 174 244 220 232 233 250 250 246 268 283 283 297 268 270 268 260 243 245 266 278 289 291 295 302
197 191 205 206 208 232 337 305 329 358 12 12 10 17 27 27 21 31 35 63 55 40 58 62 61 66 99 195 260 266 259 271 267 263 263 265 265 270 272 267 263 267 252 250 283 289 283 284 295
206 169 50 177 172 219 331 305 307 331 8 12 359 360 350 27 39 23 39 63 65 62 55 70 61 51 69 54 14 295 310 305 300 280 243 282 270 280 283 274 265 274 266 286 292 279 287 284 279
228 137 198 193 207 308 325 309 303 326 344 354 351 340 344 8 40 48 47 65 70 69 67 62 58 50 50 51 343 345 330 348 358 36 36 271 274 302 277 262 244 245 259 271 276 292 295 283 280
219 167 222 212 143 327 295 288 287 353 5 358 338 358 346 338 16 65 50 68 68 63 68 73 69 62 56 44 50 71 38 31 49 26 21 351 344 321 307 291 228 237 249 269 281 299 300 287 285
165 175 254 188 232 300 237 243 273 308 329 347 320 358 13 327 249 12 327 68 75 58 57 54 61 70 60 49 47 34 25 17 13 19 16 8 12 7 9 37 292 253 271 298 306 313 321 307 293
182 211 282 195 209 245 237 252 274 288 301 313 306 356 38 30 234 239 269 302 73 40 32 43 37 25 14 13 22 22 19 19 6 6 7 349 2 13 26 20 342 314 314 307 309 322 331 336 332
199 269 240 201 228 235 249 251 251 277 278 268 275 342 287 15 6 2 316 291 48 332 327 352 4 360 344 331 337 339 343 355 4 13 352 326 330 343 355 2 357 354 332 316 322 339 339 344 347
205 228 245 260 251 254 261 272 269 292 247 254 255 260 290 295 327 338 358 350 289 269 288 322 335 334 329 324 322 326 326 324 320 327 345 332 314 311 322 320 324 321 325 339 342 350 351 357 354
206 228 244 248 253 262 263 277 271 272 268 215 234 248 314 348 340 328 340 355 355 279 300 323 329 334 334 329 337 337 332 319 309 303 302 309 316 310 306 318 325 330 334 337 334 334 335 342 344
197 220 251 246 262 265 266 270 269 246 236 224 243 293 314 328 339 328 350 4 322 331 332 332 332 341 343 341 350 343 328 307 294 286 285 277 280 285 292 298 309 312 313 310 309 312 317 323 326
219 215 228 232 254 248 274 271 285 241 234 228 242 289 293 341 345 340 357 347 339 329 322 326 330 334 330 329 328 327 330 321 310 292 274 260 264 279 286 295 296 295 294 294 298 300 305 312 319
254 232 222 227 243 247 267 279 295 324 260 238 316 304 290 331 356 335 339 314 306 296 324 325 319 322 319 322 325 312 325 343 343 339 304 254 262 279 294 295 297 293 293 296 302 302 304 308 309
212 254 240 218 234 252 266 284 306 328 298 297 308 314 295 336 306 237 267 271 284 289 297 320 319 336 324 338 333 334 339 347 348 342 340 298 295 299 296 295 294 293 297 301 297 297 297 302 308